User: anonymous   Login
Location: Unspecified
(0.0000°N, 0.0000°E)
Time: 09:56:26
(UTC+02:00)
Language:

BREEZE-M DEB (TANK) - Orbit

View from above orbital plane
View from above orbital plane
View from above satellite
View from above satellite

Ground track
Ground track

The orbit data is extracted from the following two-line orbital elements,

1 33374U 08044B   18175.68703714 +.00000093 +00000-0 +49761-4 0  9997
2 33374 049.5106 022.1101 5435485 308.3300 014.1622 04.87343729172187
Epoch (UTC): 24 June 2018 16:29:20
Eccentricity: 0.5435485
inclination: 49.5106°
perigee height: 329 km
apogee height: 16304 km
right ascension of ascending node: 22.1101°
argument of perigee: 308.3300°
revolutions per day: 4.87343729
mean anomaly at epoch: 14.1622°
orbit number at epoch: 17218

The dashed part of the orbit path shows where the satellite is in the earth's shadow,  

DLR